KE0TRL Weather Reports


time (UTC)temp
C
wind
direction
speed
KPH
gust
KPH
rain 1hr
cm
rain 24hr
cm
rain mn
cm
humidity
%
barometer
mb
20260504020402 17 158 0.0 0.0 0.00 0.00 0.00 41 1006.4
20260504015402 18 158 0.0 0.0 0.00 0.00 0.00 40 1006.4
20260504014302 18 158 0.0 0.0 0.00 0.00 0.00 40 1006.8
20260504012102 20 158 0.0 0.0 0.00 0.00 0.00 37 1006.8
20260504005802 21 45 0.0 0.0 0.00 0.00 0.00 35 1006.8
20260504004702 21 158 0.0 0.0 0.00 0.00 0.00 34 1006.4
20260504003602 22 270 1.6 1.6 0.00 0.00 0.00 34 1006.8
20260504001402 23 180 1.6 4.8 0.00 0.00 0.00 30 1006.8
20260503235202 24 0 3.2 4.8 0.00 0.00 0.00 30 1007.1
20260503234102 25 68 4.8 4.8 0.00 0.00 0.00 30 1007.1
20260503233004 25 45 3.2 3.2 0.00 0.00 0.00 30 1007.1
20260503230802 26 23 6.4 6.4 0.00 0.00 0.00 27 1007.1
20260503225703 26 45 8.0 8.0 0.00 0.00 0.00 27 1007.1
20260503224602 25 23 3.2 9.7 0.00 0.00 0.00 30 1007.1
20260503223503 26 45 1.6 6.4 0.00 0.00 0.00 30 1007.5
20260503222304 26 180 6.4 8.0 0.00 0.00 0.00 30 1007.1
20260503221202 25 225 4.8 6.4 0.00 0.00 0.00 30 1007.1
20260503215101 25 315 1.6 9.7 0.00 0.00 0.00 30 1007.5
20260503213902 26 203 1.6 6.4 0.00 0.00 0.00 27 1007.8
20260503212802 25 45 3.2 8.0 0.00 0.00 0.00 30 1007.5
20260503211702 25 158 6.4 6.4 0.00 0.00 0.00 31 1007.8
20260503210602 25 23 4.8 9.7 0.00 0.00 0.00 30 1008.1
20260503204302 25 135 3.2 4.8 0.00 0.00 0.00 30 1008.1
20260503203302 24 158 6.4 6.4 0.00 0.00 0.00 32 1008.1
20260503202202 23 45 0.0 4.8 0.00 0.00 0.00 35 1008.5
20260503200002 24 158 1.6 8.0 0.00 0.00 0.00 31 1008.8
20260503194902 23 158 0.0 9.7 0.00 0.00 0.00 34 1009.1
20260503193802 23 180 4.8 6.4 0.00 0.00 0.00 35 1009.1
20260503192602 22 180 4.8 6.4 0.00 0.00 0.00 35 1009.1
20260503191502 23 180 4.8 4.8 0.00 0.00 0.00 37 1009.1
20260503190402 23 270 3.2 6.4 0.00 0.00 0.00 32 1009.5
20260503185304 22 270 3.2 9.7 0.00 0.00 0.00 34 1009.1
20260503183003 22 180 11.3 11.3 0.00 0.00 0.00 34 1009.8
20260503181902 22 203 4.8 8.0 0.00 0.00 0.00 35 1009.8
20260503180802 22 270 1.6 8.0 0.00 0.00 0.00 34 1009.8
20260503175702 22 180 8.0 9.7 0.00 0.00 0.00 35 1010.2
20260503174602 21 158 3.2 11.3 0.00 0.00 0.00 35 1010.2
20260503173502 21 135 4.8 8.0 0.00 0.00 0.00 37 1010.2
20260503172402 21 135 8.0 8.0 0.00 0.00 0.00 37 1010.5
20260503150702 16 180 3.2 4.8 0.00 0.00 0.00 50 1010.2
20260503131402 13 45 4.8 6.4 0.00 0.00 0.00 50 1009.5
20260503130302 13 68 1.6 6.4 0.00 0.00 0.00 50 1009.5
20260503110402 11 23 9.7 9.7 0.00 0.00 0.00 51 1008.8
20260503090402 13 270 12.9 14.5 0.00 0.00 0.00 44 1008.8
20260503080802 12 45 4.8 4.8 0.00 0.00 0.00 45 1009.1
20260503072202 12 158 0.0 8.0 0.00 0.00 0.00 45 1009.5
20260503054302 13 270 4.8 6.4 0.00 0.00 0.00 41 1010.5
20260503053301 13 45 4.8 8.0 0.00 0.00 0.00 40 1010.8
20260503051102 13 180 4.8 8.0 0.00 0.00 0.00 41 1010.5
20260503050004 13 68 3.2 8.0 0.00 0.00 0.00 41 1010.5
20260503045702 13 45 8.0 8.0 0.00 0.00 0.00 41 1010.5
20260503043502 13 158 3.2 9.7 0.00 0.00 0.00 40 1010.8
20260503042402 13 45 4.8 8.0 0.00 0.00 0.00 40 1010.8
20260503041202 13 68 3.2 6.4 0.00 0.00 0.00 40 1010.8
20260503040202 14 68 4.8 6.4 0.00 0.00 0.00 39 1010.8
20260503035102 14 90 6.4 9.7 0.00 0.00 0.00 37 1011.5
20260503034002 15 113 6.4 6.4 0.00 0.00 0.00 37 1011.5
20260503032902 15 45 6.4 8.0 0.00 0.00 0.00 37 1011.2
20260503031802 15 113 4.8 9.7 0.00 0.00 0.00 37 1011.5
20260503030603 15 113 1.6 8.0 0.00 0.00 0.00 37 1011.5
20260503025602 15 180 6.4 6.4 0.00 0.00 0.00 37 1011.9
20260503024502 15 113 4.8 4.8 0.00 0.00 0.00 37 1011.9
20260503023402 15 68 3.2 8.0 0.00 0.00 0.00 37 1011.9
20260503021202 14 180 0.0 0.0 0.00 0.00 0.00 39 1012.2